Winner, SD

3:34 AM CDT on October 22, 2017 (GMT -0500)
Winner

Weather History for KICR - April, 2013

Change the Weather History Date:

Wednesday, April 17, 2013

  Actual Average Record
Temperature  
Mean Temperature 30 °F 48 °F  
Max Temperature 33 °F 60 °F 71 °F (2012)
Min Temperature 27 °F 37 °F 19 °F (2014)
Degree Days  
Heating Degree Days 35 17  
Month to date heating degree days 474 333  
Since 1 July heating degree days 6149 6218  
Cooling Degree Days 0 0  
Month to date cooling degree days 0 0  
Year to date cooling degree days 0 0  
Moisture  
Dew Point 27 °F    
Average Humidity 85    
Maximum Humidity 92    
Minimum Humidity 78    
Precipitation  
Precipitation 0.01 in 0.09 in 0.94 in (2016)
Month to date precipitation 0.71 1.19  
Year to date precipitation 1.31 3.33  
Sea Level Pressure  
Sea Level Pressure 30.19 in    
Wind  
Wind Speed 15 mph (NNE)    
Max Wind Speed 25 mph    
Max Gust Speed 31 mph    
Visibility 5 miles    
Events Fog , Snow    
T = Trace of Precipitation, MM = Missing Value Source: NWS Daily Summary

Daily Weather History Graph

Daily Weather History Graph

Search for Another Location

Airport or City:

Trip Planner

Search our weather history database for the weather conditions in past years. The results will help you decide how hot, cold, wet, or windy it might be!

Date:

Astronomy

Apr. 17, 2013 Rise Set
Actual Time 6:53 AM CDT 8:25 PM CDT
Civil Twilight 6:23 AM CDT 8:55 PM CDT
Nautical Twilight 5:47 AM CDT 9:31 PM CDT
Astronomical Twilight 5:08 AM CDT 10:10 PM CDT
Moon 12:05 PM CDT (4/17) 2:07 AM CDT (4/17)
Length of Visible Light 14h 31m
Length of Day
13h 31m
Waxing Crescent, 42% of the Moon is Illuminated
Apr 17
Waxing Crescent
Apr 18
First Quarter
Apr 25
Full
May 2
Last Quarter
May 9
New

Hourly Weather History & Observations

Time (CDT) Temp. Windchill Dew Point Humidity Pressure Visibility Wind Dir Wind Speed Gust Speed Precip Events Conditions
12:53 AM 32.0 °F 22.5 °F 28.0 °F 85% 30.32 in 10.0 mi NE 12.7 mph - N/A   Overcast
1:44 AM 30.2 °F 19.8 °F 28.4 °F 93% 30.26 in 6.0 mi NE 13.8 mph - 0.00 in Snow Light Snow
1:53 AM 30.9 °F 20.7 °F 28.0 °F 89% 30.31 in 6.0 mi NE 13.8 mph - 0.00 in Snow Light Snow
2:14 AM 30.2 °F 19.3 °F 28.4 °F 93% 30.25 in 6.0 mi NE 15.0 mph - 0.00 in Snow Light Snow
2:25 AM 30.2 °F 20.2 °F 28.4 °F 93% 30.26 in 3.0 mi NE 12.7 mph - 0.00 in Snow Light Snow
2:34 AM 30.2 °F 19.8 °F 28.4 °F 93% 30.25 in 2.5 mi NE 13.8 mph - 0.00 in Snow Light Snow
2:44 AM 30.2 °F 20.2 °F 26.6 °F 86% 30.25 in 2.0 mi NE 12.7 mph - 0.00 in Snow Light Snow
2:48 AM 30.2 °F 19.8 °F 26.6 °F 86% 30.25 in 1.5 mi NE 13.8 mph - 0.00 in Snow Light Snow
2:53 AM 30.0 °F 19.5 °F 27.0 °F 88% 30.31 in 1.8 mi NE 13.8 mph - 0.00 in Snow Light Snow
2:58 AM 30.2 °F 18.9 °F 26.6 °F 86% 30.24 in 2.5 mi NE 16.1 mph - 0.00 in Snow Light Snow
3:06 AM 28.4 °F 16.6 °F 26.6 °F 93% 30.24 in 4.0 mi NE 16.1 mph 21.9 mph 0.00 in Snow Light Snow
3:12 AM 28.4 °F 17.5 °F 26.6 °F 93% 30.23 in 4.0 mi NE 13.8 mph 21.9 mph 0.00 in Snow Light Snow
3:19 AM 28.4 °F 18.0 °F 26.6 °F 93% 30.23 in 5.0 mi NE 12.7 mph - 0.00 in Snow Light Snow
3:31 AM 28.4 °F 19.1 °F 26.6 °F 93% 30.23 in 6.0 mi ENE 10.4 mph - 0.00 in   Overcast
3:33 AM 28.4 °F 19.1 °F 26.6 °F 93% 30.23 in 6.0 mi ENE 10.4 mph - 0.00 in   Overcast
3:53 AM 28.9 °F 20.4 °F 27.0 °F 92% 30.30 in 6.0 mi NE 9.2 mph - 0.00 in   Overcast
4:53 AM 30.0 °F 20.0 °F 28.0 °F 92% 30.25 in 4.0 mi NNE 12.7 mph - 0.00 in   Overcast
5:01 AM 30.2 °F 19.8 °F 28.4 °F 93% 30.18 in 6.0 mi NNE 13.8 mph - 0.00 in   Overcast
5:53 AM 28.9 °F 18.6 °F 27.0 °F 92% 30.25 in 10.0 mi NE 12.7 mph - 0.00 in   Overcast
6:53 AM 28.9 °F 19.2 °F 27.0 °F 92% 30.26 in 6.0 mi NNE 11.5 mph - 0.00 in   Overcast
7:07 AM 28.4 °F 18.5 °F 26.6 °F 93% 30.20 in 7.0 mi NNE 11.5 mph - 0.00 in   Overcast
7:53 AM 28.9 °F 19.8 °F 27.0 °F 92% 30.27 in 4.0 mi NE 10.4 mph - 0.00 in   Overcast
8:33 AM 28.4 °F 19.7 °F 26.6 °F 93% 30.20 in 7.0 mi NE 9.2 mph - 0.00 in   Overcast
9:53 AM 30.0 °F 21.1 °F 27.0 °F 88% 30.23 in 10.0 mi North 10.4 mph - 0.00 in   Overcast
10:53 AM 30.9 °F 20.7 °F 27.0 °F 85% 30.22 in 10.0 mi North 13.8 mph - 0.00 in   Overcast
11:00 AM 30.2 °F 20.2 °F 28.4 °F 93% 30.16 in 10.0 mi North 12.7 mph - 0.00 in   Overcast
11:53 AM 32.0 °F 21.6 °F 28.0 °F 85% 30.22 in 10.0 mi NNE 15.0 mph - 0.00 in   Overcast
12:53 PM 32.0 °F 21.2 °F 28.0 °F 85% 30.19 in 10.0 mi North 16.1 mph - 0.00 in   Overcast
1:53 PM 32.0 °F 20.8 °F 28.0 °F 85% 30.16 in 10.0 mi North 17.3 mph - 0.00 in   Overcast
2:53 PM 33.1 °F 22.2 °F 28.0 °F 82% 30.15 in 10.0 mi North 17.3 mph - N/A   Overcast
3:44 PM 33.8 °F 21.9 °F 28.4 °F 81% 30.08 in 10.0 mi North 21.9 mph - N/A   Overcast
3:53 PM 33.1 °F 21.2 °F 28.0 °F 82% 30.15 in 10.0 mi North 20.7 mph - N/A   Overcast
4:45 PM 32.0 °F 19.5 °F 26.6 °F 80% 30.07 in 10.0 mi North 21.9 mph - N/A   Overcast
4:53 PM 32.0 °F 19.5 °F 27.0 °F 82% 30.14 in 10.0 mi North 21.9 mph 28.8 mph N/A   Overcast
5:19 PM 32.0 °F 19.5 °F 26.6 °F 80% 30.09 in 10.0 mi North 21.9 mph - N/A   Overcast
5:53 PM 30.9 °F 18.1 °F 26.1 °F 82% 30.18 in 10.0 mi North 21.9 mph 27.6 mph 0.00 in   Overcast
6:53 PM 30.0 °F 17.5 °F 26.1 °F 85% 30.17 in 4.0 mi North 19.6 mph 27.6 mph 0.00 in Snow Light Snow
7:42 PM 30.2 °F 18.1 °F 26.6 °F 86% 30.10 in 2.5 mi North 18.4 mph - 0.00 in Snow Light Snow
7:45 PM 30.2 °F 18.9 °F 26.6 °F 86% 30.10 in 1.8 mi North 16.1 mph - 0.00 in Snow Light Snow
7:53 PM 30.0 °F 19.1 °F 27.0 °F 88% 30.17 in 1.0 mi North 15.0 mph 25.3 mph 0.00 in Snow Light Snow
8:03 PM 30.2 °F 18.9 °F 26.6 °F 86% 30.11 in 0.8 mi North 16.1 mph - 0.00 in Snow Light Snow
8:23 PM 28.4 °F 15.1 °F 26.6 °F 93% 30.12 in 0.5 mi North 20.7 mph 27.6 mph 0.00 in Fog , Snow Snow
8:31 PM 28.4 °F 14.4 °F 26.6 °F 93% 30.11 in 0.8 mi North 23.0 mph 31.1 mph 0.00 in Snow Light Snow
8:38 PM 28.4 °F 15.4 °F 26.6 °F 93% 30.11 in 1.0 mi North 19.6 mph - 0.00 in Snow Light Snow
8:53 PM 28.9 °F 16.9 °F 27.0 °F 92% 30.19 in 1.2 mi North 17.3 mph - 0.00 in Snow Light Snow
9:00 PM 28.4 °F 15.1 °F 26.6 °F 93% 30.12 in 1.2 mi North 20.7 mph - 0.00 in Snow Light Snow
9:10 PM 28.4 °F 15.8 °F 26.6 °F 93% 30.12 in 1.8 mi North 18.4 mph - 0.01 in Snow Light Snow
9:21 PM 28.4 °F 14.1 °F 26.6 °F 93% 30.13 in 1.5 mi North 24.2 mph 28.8 mph 0.01 in Snow Light Snow
9:43 PM 28.4 °F 15.8 °F 26.6 °F 93% 30.13 in 1.2 mi North 18.4 mph - 0.01 in Snow Light Snow
9:53 PM 28.0 °F 17.0 °F 27.0 °F 96% 30.20 in 1.2 mi North 13.8 mph - 0.01 in Snow Light Snow
10:13 PM 28.4 °F 15.4 °F 26.6 °F 93% 30.15 in 1.2 mi North 19.6 mph - 0.00 in Snow Light Snow
10:25 PM 28.4 °F 15.8 °F 26.6 °F 93% 30.15 in 2.5 mi North 18.4 mph - 0.00 in Snow Light Snow
10:36 PM 28.4 °F 15.8 °F 24.8 °F 86% 30.14 in 3.0 mi North 18.4 mph - 0.00 in Snow Light Snow
10:43 PM 28.4 °F 16.2 °F 24.8 °F 86% 30.14 in 3.0 mi NNW 17.3 mph - 0.00 in Snow Light Snow
10:45 PM 28.4 °F 16.2 °F 26.6 °F 93% 30.14 in 2.5 mi NNW 17.3 mph - 0.00 in Snow Light Snow
10:53 PM 28.0 °F 15.7 °F 26.1 °F 92% 30.20 in 2.0 mi NNW 17.3 mph - 0.00 in Snow Light Snow
11:27 PM 28.4 °F 15.4 °F 24.8 °F 86% 30.10 in 2.0 mi NNW 19.6 mph - 0.00 in Snow Light Snow
11:33 PM 28.4 °F 15.1 °F 24.8 °F 86% 30.11 in 3.0 mi NNW 20.7 mph - 0.00 in Snow Light Snow
11:53 PM 28.0 °F 15.3 °F 25.0 °F 88% 30.16 in 5.0 mi NNW 18.4 mph - 0.00 in Snow Light Snow